Vitoria, Spain

9:47 AM CEST on March 28, 2017 (GMT +0200)
Vitoria

Weather History for LEVT - March, 2012

Change the Weather History Date:

Sunday, March 11, 2012

  Actual Average Record
Temperature  
Mean Temperature 48 °F -  
Max Temperature 55 °F 59 °F 77 °F (2017)
Min Temperature 41 °F 37 °F 26 °F (1997)
Degree Days  
Heating Degree Days 17    
Moisture  
Dew Point 39 °F    
Average Humidity 76    
Maximum Humidity 87    
Minimum Humidity 58    
Precipitation  
Precipitation 0.00 in - - ()
Sea Level Pressure  
Sea Level Pressure 30.45 in    
Wind  
Wind Speed 6 mph ()    
Max Wind Speed 21 mph    
Max Gust Speed 32 mph    
Visibility 6.1 miles    
Events      
Averages and records for this station are not official NWS values.
T = Trace of Precipitation, MM = Missing Value Source: Averaged Metar Reports

Daily Weather History Graph

Daily Weather History Graph

Search for Another Location

Airport or City:

Trip Planner

Search our weather history database for the weather conditions in past years. The results will help you decide how hot, cold, wet, or windy it might be!

Date:

Astronomy

Mar. 11, 2012 Rise Set
Actual Time 7:29 AM CET 7:12 PM CET
Civil Twilight 7:01 AM CET 7:41 PM CET
Nautical Twilight 6:28 AM CET 8:13 PM CET
Astronomical Twilight 5:55 AM CET 8:47 PM CET
Moon 11:27 PM CET (3/11) 8:48 AM CET (3/11)
Length of Visible Light 12h 39m
Length of Day
11h 43m
Waning Gibbous, 87% of the Moon is Illuminated
Mar 11
Waning Gibbous
Mar 15
Last Quarter
Mar 22
New
Mar 30
First Quarter
Apr 6
Full

Hourly Weather History & Observations

Time (CET) Temp. Windchill Dew Point Humidity Pressure Visibility Wind Dir Wind Speed Gust Speed Precip Events Conditions
12:00 AM 41.0 °F - 35.6 °F 81% 30.54 in 6.2 mi Variable 2.3 mph - N/A   Partly Cloudy
12:30 AM 41.0 °F - 35.6 °F 81% 30.54 in 6.2 mi Variable 2.3 mph - N/A   Scattered Clouds
1:00 AM 42.8 °F 38.6 °F 37.4 °F 81% 30.51 in 6.2 mi NW 6.9 mph - N/A   Scattered Clouds
1:30 AM 42.8 °F 39.3 °F 37.4 °F 81% 30.54 in 6.2 mi NW 5.8 mph - N/A   Scattered Clouds
2:00 AM 42.8 °F - 37.4 °F 81% 30.51 in 6.2 mi Variable 1.2 mph - N/A   Mostly Cloudy
2:30 AM 42.8 °F - 37.4 °F 81% 30.51 in 6.2 mi Calm Calm - N/A   Mostly Cloudy
3:00 AM 42.8 °F - 37.4 °F 81% 30.51 in 6.2 mi Variable 1.2 mph - N/A   Mostly Cloudy
3:30 AM 41.0 °F 39.0 °F 37.4 °F 87% 30.48 in 6.2 mi WNW 3.5 mph - N/A   Mostly Cloudy
4:00 AM 42.8 °F - 37.4 °F 81% 30.48 in 6.2 mi Variable 2.3 mph - N/A   Mostly Cloudy
4:30 AM 41.0 °F - 37.4 °F 87% 30.48 in 6.2 mi NNW 2.3 mph - N/A   Mostly Cloudy
5:00 AM 42.8 °F 39.3 °F 37.4 °F 81% 30.48 in 6.2 mi NNW 5.8 mph - N/A   Mostly Cloudy
5:30 AM 42.8 °F 41.1 °F 37.4 °F 81% 30.48 in 6.2 mi NNW 3.5 mph - N/A   Mostly Cloudy
6:00 AM 42.8 °F 40.1 °F 37.4 °F 81% 30.48 in 6.2 mi North 4.6 mph - N/A   Mostly Cloudy
6:30 AM 44.6 °F 39.7 °F 37.4 °F 76% 30.45 in 6.2 mi North 9.2 mph - N/A   Mostly Cloudy
7:00 AM 44.6 °F 40.2 °F 39.2 °F 81% 30.48 in 6.2 mi North 8.1 mph - N/A   Mostly Cloudy
7:30 AM 44.6 °F 40.7 °F 39.2 °F 81% 30.48 in 6.2 mi NNE 6.9 mph - N/A   Mostly Cloudy
8:00 AM 44.6 °F 43.1 °F 39.2 °F 81% 30.48 in 6.2 mi North 3.5 mph - N/A   Mostly Cloudy
8:30 AM 44.6 °F - 39.2 °F 81% 30.48 in 6.2 mi NW 2.3 mph - N/A   Mostly Cloudy
9:00 AM 44.6 °F 42.2 °F 39.2 °F 81% 30.48 in 5.6 mi NNW 4.6 mph - N/A   Mostly Cloudy
9:30 AM 46.4 °F 42.9 °F 39.2 °F 76% 30.48 in 5.6 mi North 6.9 mph - N/A   Mostly Cloudy
10:00 AM 46.4 °F 41.9 °F 39.2 °F 76% 30.48 in 5.6 mi NNE 9.2 mph - N/A   Mostly Cloudy
10:30 AM 46.4 °F 42.4 °F 39.2 °F 76% 30.48 in 5.6 mi NNE 8.1 mph - N/A   Mostly Cloudy
11:00 AM 48.2 °F - 41.0 °F 76% 30.48 in 5.6 mi North 6.9 mph - N/A   Mostly Cloudy
11:30 AM 48.2 °F - 41.0 °F 76% 30.48 in 6.2 mi North 10.4 mph - N/A   Mostly Cloudy
12:00 PM 50.0 °F - 41.0 °F 71% 30.48 in 6.2 mi North 9.2 mph - N/A   Scattered Clouds
12:30 PM 51.8 °F - 41.0 °F 67% 30.45 in 6.2 mi NNE 13.8 mph - N/A   Scattered Clouds
1:00 PM 53.6 °F - 41.0 °F 62% 30.45 in 6.2 mi NE 13.8 mph - N/A   Scattered Clouds
1:30 PM 53.6 °F - 39.2 °F 58% 30.45 in 6.2 mi NNE 13.8 mph - N/A   Scattered Clouds
2:00 PM 53.6 °F - 39.2 °F 58% 30.42 in 6.2 mi NNE 13.8 mph - N/A   Scattered Clouds
2:30 PM 55.4 °F - 41.0 °F 58% 30.42 in 6.2 mi NNE 15.0 mph - N/A   Scattered Clouds
3:00 PM 55.4 °F - 41.0 °F 58% 30.42 in 6.2 mi NE 15.0 mph - N/A   Scattered Clouds
3:30 PM 53.6 °F - 41.0 °F 62% 30.42 in 6.2 mi NNE 19.6 mph 32.2 mph N/A   Scattered Clouds
4:00 PM 53.6 °F - 41.0 °F 62% 30.42 in 6.2 mi North 15.0 mph - N/A   Scattered Clouds
4:30 PM 51.8 °F - 41.0 °F 67% 30.39 in 6.2 mi North 20.7 mph - N/A   Mostly Cloudy
5:00 PM 50.0 °F - 41.0 °F 71% 30.39 in 6.2 mi North 18.4 mph - N/A   Mostly Cloudy
5:30 PM 48.2 °F - 39.2 °F 71% 30.42 in 6.2 mi North 16.1 mph - N/A   Mostly Cloudy
6:00 PM 48.2 °F - 41.0 °F 76% 30.42 in 6.2 mi North 16.1 mph - N/A   Mostly Cloudy
6:30 PM 48.2 °F - 39.2 °F 71% 30.42 in 6.2 mi North 10.4 mph - N/A   Mostly Cloudy
7:00 PM 48.2 °F - 41.0 °F 76% 30.42 in 6.2 mi NNE 9.2 mph - N/A   Mostly Cloudy
7:30 PM 48.2 °F - 39.2 °F 71% 30.42 in 6.2 mi NNW 9.2 mph - N/A   Mostly Cloudy
8:00 PM 46.4 °F 42.9 °F 41.0 °F 81% 30.39 in 6.2 mi North 6.9 mph - N/A   Mostly Cloudy
8:30 PM 46.4 °F 42.4 °F 41.0 °F 81% 30.39 in 6.2 mi North 8.1 mph - N/A   Mostly Cloudy
9:00 PM 46.4 °F 42.9 °F 41.0 °F 81% 30.39 in 6.2 mi North 6.9 mph - N/A   Mostly Cloudy
9:30 PM 46.4 °F 42.4 °F 41.0 °F 81% 30.39 in 6.2 mi North 8.1 mph - N/A   Mostly Cloudy
10:00 PM 46.4 °F 42.9 °F 41.0 °F 81% 30.39 in 6.2 mi North 6.9 mph - N/A   Mostly Cloudy
10:30 PM 46.4 °F 41.9 °F 42.8 °F 87% 30.39 in 6.2 mi North 9.2 mph - N/A   Mostly Cloudy
11:00 PM 46.4 °F 41.9 °F 42.8 °F 87% 30.39 in 6.2 mi North 9.2 mph - N/A   Mostly Cloudy
11:30 PM 46.4 °F 42.9 °F 42.8 °F 87% 30.39 in 6.2 mi North 6.9 mph - N/A   Mostly Cloudy